VLI140 MMGL-MMTJ

Flight info

Callsign VLI140
Flight time N/A
Altitude 34000
Route TEILA1 TEILA UJ3 MZT AVRIL UJ3 TIJ
Aircraft B733/M-SDE2E3FHIRW/S

Departure

Time N/A
Airport Guadalajara International Airport (MMGL)

Arrival

Time 2026-04-30 03:05
Airport General Abelardo L. Rodriguez International Airport (MMTJ)
Time Latitude Longitude Altitude Speed Heading
2026-04-30 02:46 32.03005 -115.31161 27876 ft 436 kts 283°
2026-04-30 02:46 32.04083 -115.34528 27106 ft 443 kts 284°
2026-04-30 02:47 32.05178 -115.37941 26446 ft 439 kts 284°
2026-04-30 02:47 32.06234 -115.41236 25889 ft 433 kts 284°
2026-04-30 02:47 32.07297 -115.44563 25328 ft 428 kts 284°
2026-04-30 02:47 32.08342 -115.47842 24757 ft 423 kts 284°
2026-04-30 02:48 32.09366 -115.51062 24187 ft 424 kts 285°
2026-04-30 02:48 32.10405 -115.54332 23620 ft 431 kts 285°
2026-04-30 02:48 32.11469 -115.57636 23044 ft 426 kts 285°
2026-04-30 02:48 32.12494 -115.60838 22475 ft 421 kts 285°
2026-04-30 02:49 32.13529 -115.64088 21875 ft 417 kts 286°
2026-04-30 02:49 32.14529 -115.67287 21285 ft 413 kts 285°
2026-04-30 02:49 32.15499 -115.70448 20745 ft 408 kts 285°
2026-04-30 02:49 32.16493 -115.73646 20173 ft 404 kts 285°
2026-04-30 02:50 32.17476 -115.76783 19610 ft 401 kts 286°
2026-04-30 02:50 32.18459 -115.79915 19062 ft 406 kts 287°
2026-04-30 02:50 32.19462 -115.83109 18491 ft 405 kts 287°
2026-04-30 02:50 32.20458 -115.86279 17825 ft 404 kts 287°
2026-04-30 02:51 32.21449 -115.89433 17247 ft 400 kts 287°
2026-04-30 02:51 32.22427 -115.92560 16711 ft 395 kts 287°
2026-04-30 02:51 32.23389 -115.95655 16181 ft 390 kts 288°
2026-04-30 02:51 32.24341 -115.98707 15643 ft 386 kts 288°
2026-04-30 02:52 32.25246 -116.01607 15118 ft 378 kts 288°
2026-04-30 02:52 32.26176 -116.04583 14589 ft 371 kts 288°
2026-04-30 02:52 32.27068 -116.07443 14087 ft 363 kts 289°
2026-04-30 02:52 32.27938 -116.10232 13584 ft 354 kts 289°
2026-04-30 02:53 32.28784 -116.12946 13228 ft 340 kts 289°
2026-04-30 02:53 32.29613 -116.15608 12950 ft 325 kts 289°
2026-04-30 02:53 32.30391 -116.18107 12596 ft 314 kts 289°
2026-04-30 02:53 32.31159 -116.20576 12088 ft 309 kts 289°
2026-04-30 02:54 32.31915 -116.23011 11573 ft 304 kts 289°
2026-04-30 02:54 32.32654 -116.25393 11062 ft 300 kts 289°
2026-04-30 02:54 32.33364 -116.27683 10580 ft 297 kts 289°
2026-04-30 02:54 32.34075 -116.29977 10162 ft 291 kts 289°
2026-04-30 02:55 32.34778 -116.32245 9808 ft 283 kts 288°
2026-04-30 02:55 32.35439 -116.34377 9737 ft 266 kts 288°
2026-04-30 02:55 32.36076 -116.36438 9771 ft 265 kts 288°
2026-04-30 02:55 32.36749 -116.38623 9737 ft 283 kts 288°
2026-04-30 02:56 32.37421 -116.40823 9481 ft 284 kts 288°
2026-04-30 02:56 32.38102 -116.43056 9200 ft 281 kts 288°
2026-04-30 02:56 32.38776 -116.45260 8804 ft 281 kts 288°
2026-04-30 02:56 32.39444 -116.47433 8382 ft 280 kts 288°
2026-04-30 02:57 32.40116 -116.49619 7955 ft 279 kts 288°
2026-04-30 02:57 32.40780 -116.51779 7531 ft 278 kts 288°
2026-04-30 02:57 32.41446 -116.53944 7103 ft 277 kts 288°
2026-04-30 02:57 32.42112 -116.56108 6675 ft 275 kts 288°
2026-04-30 02:58 32.42760 -116.58217 6256 ft 274 kts 288°
2026-04-30 02:58 32.43409 -116.60324 6030 ft 264 kts 288°
2026-04-30 02:58 32.43905 -116.62349 5845 ft 248 kts 274°
2026-04-30 02:58 32.44039 -116.64358 5603 ft 238 kts 272°
2026-04-30 02:59 32.44155 -116.66313 5331 ft 229 kts 272°
2026-04-30 02:59 32.44268 -116.68193 5073 ft 219 kts 272°
2026-04-30 02:59 32.44375 -116.69960 4871 ft 207 kts 272°
2026-04-30 02:59 32.44479 -116.71622 4857 ft 188 kts 273°
2026-04-30 03:00 32.44874 -116.73121 4700 ft 192 kts 293°
2026-04-30 03:00 32.45477 -116.74580 4423 ft 186 kts 294°
2026-04-30 03:00 32.46035 -116.75925 4228 ft 169 kts 294°
2026-04-30 03:00 32.46568 -116.77213 4230 ft 171 kts 294°
2026-04-30 03:01 32.47096 -116.78487 3983 ft 164 kts 294°
2026-04-30 03:01 32.47596 -116.79675 3707 ft 150 kts 294°
2026-04-30 03:01 32.48056 -116.80753 3576 ft 144 kts 294°
2026-04-30 03:01 32.48521 -116.81860 3490 ft 146 kts 294°
2026-04-30 03:02 32.49007 -116.82977 3419 ft 149 kts 295°
2026-04-30 03:02 32.49507 -116.84084 3166 ft 144 kts 296°
2026-04-30 03:02 32.50007 -116.85139 2827 ft 143 kts 297°
2026-04-30 03:02 32.50523 -116.86185 2512 ft 140 kts 298°
2026-04-30 03:03 32.51050 -116.87189 2288 ft 142 kts 301°
2026-04-30 03:03 32.52198 -116.89184 1945 ft 142 kts 303°
2026-04-30 03:03 32.52776 -116.90157 1701 ft 143 kts 302°
2026-04-30 03:04 32.53277 -116.91211 1392 ft 140 kts 287°
2026-04-30 03:04 32.53509 -116.92345 1129 ft 135 kts 277°
2026-04-30 03:04 32.53650 -116.93433 954 ft 131 kts 278°
2026-04-30 03:04 32.53793 -116.94562 794 ft 133 kts 277°
2026-04-30 03:05 32.53937 -116.95708 592 ft 132 kts 278°
2026-04-30 03:05 32.54070 -116.96742 495 ft 109 kts 279°
2026-04-30 03:05 32.54163 -116.97430 495 ft 58 kts 279°
2026-04-30 03:05 32.54213 -116.97823 495 ft 32 kts 279°
2026-04-30 03:06 32.54238 -116.98004 495 ft 18 kts 279°
2026-04-30 03:06 32.54259 -116.98163 495 ft 18 kts 279°
2026-04-30 03:06 32.54281 -116.98321 495 ft 19 kts 279°
2026-04-30 03:06 32.54299 -116.98457 495 ft 11 kts 279°
2026-04-30 03:07 32.54339 -116.98528 495 ft 12 kts
2026-04-30 03:07 32.54395 -116.98518 495 ft 8 kts
2026-04-30 03:07 32.54454 -116.98474 495 ft 11 kts 61°
2026-04-30 03:07 32.54453 -116.98366 495 ft 14 kts 98°
2026-04-30 03:08 32.54436 -116.98242 495 ft 15 kts 99°
2026-04-30 03:08 32.54422 -116.98132 495 ft 12 kts 98°
2026-04-30 03:08 32.54408 -116.98023 495 ft 14 kts 99°
2026-04-30 03:08 32.54394 -116.97920 495 ft 8 kts 99°
2026-04-30 03:09 32.54385 -116.97848 495 ft 6 kts 99°
2026-04-30 03:09 32.54397 -116.97788 495 ft 10 kts 27°
2026-04-30 03:09 32.54442 -116.97805 495 ft 7 kts 322°
2026-04-30 03:09 32.54472 -116.97820 495 ft 4 kts
2026-04-30 03:10 32.54510 -116.97814 495 ft 6 kts
2026-04-30 03:10 32.54557 -116.97793 495 ft 6 kts 46°
2026-04-30 03:10 32.54567 -116.97754 495 ft 3 kts 79°
2026-04-30 03:10 32.54570 -116.97739 495 ft 1 kts 79°
2026-04-30 03:11 32.54570 -116.97735 495 ft 0 kts 79°